Location: Milton Keynes
(52.0316°N, 0.7531°W)
Time: 02:10:24
(UTC+00:00)

ISS - Visible Passes

Search period start: 29 November 2023 00:00
Search period end: 09 December 2023 00:00
Orbit: 416 x 418 km, 51.6° (Epoch: 28 November)

Date Brightness Start Highest point End Pass type
(mag) Time Alt. Az. Time Alt. Az. Time Alt. Az.
29 Nov -3.7 17:15:13 10° W 17:18:35 81° S 17:21:01 18° E visible
29 Nov -1.6 18:52:02 10° W 18:53:55 26° WSW 18:53:55 26° WSW visible
30 Nov -3.0 18:03:38 10° W 18:06:54 47° SSW 18:07:42 38° SSE visible
01 Dec -3.3 17:15:15 10° W 17:18:34 61° SSW 17:21:32 12° ESE visible
01 Dec -1.2 18:52:23 10° W 18:54:27 19° SW 18:54:27 19° SW visible
02 Dec -3.5 16:26:49 10° W 16:30:11 73° S 16:33:32 10° ESE visible
02 Dec -1.8 18:03:43 10° W 18:06:37 27° SSW 18:08:25 17° SSE visible
03 Dec -2.3 17:15:09 10° W 17:18:16 37° SSW 17:21:24 10° SE visible
04 Dec -2.8 16:26:35 10° W 16:29:51 49° SSW 16:33:06 10° SE visible
04 Dec -0.8 18:04:08 10° WSW 18:06:01 14° SW 18:07:55 10° S visible
05 Dec -1.1 17:15:06 10° W 17:17:40 20° SW 17:20:14 10° SSE visible
07 Dec 0.0 17:16:22 10° SW 17:16:44 10° SW 17:17:06 10° SW visible
